,,Stat6,,Stat2,,Stat8,,Stat9,,Stat10,,Wind1,,Wind1,
time,status,PA1M_AVG,status,PR1M_SUM,status,RH1M_AVG,status,SR1M_AVG,status,TA1M_AVG,status,W1dAve1m,status,W1sAve1m,
2008-07-04, 00:00:00,VALID,920.638,VALID,0,VALID,100,VALID,-0.0679233,VALID,18.8248,VALID,19,VALID,0.240663,
2008-07-04, 00:01:00,VALID,920.626,VALID,0,VALID,100,VALID,-0.0679233,VALID,18.8281,VALID,332,VALID,0,
2008-07-04, 00:02:00,VALID,920.62,VALID,0,VALID,100,VALID,-0.0849042,VALID,18.8248,VALID,332,VALID,0,
2008-07-04, 00:03:00,VALID,920.585,VALID,0,VALID,100,VALID,-0.0679233,VALID,18.8151,VALID,332,VALID,0,
2008-07-04, 00:04:00,VALID,920.562,VALID,0,VALID,100,VALID,-0.101885,VALID,18.8218,VALID,332,VALID,0,
2008-07-04, 00:05:00,VALID,920.554,VALID,0,VALID,100,VALID,-0.0679233,VALID,18.841,VALID,332,VALID,0,
2008-07-04, 00:06:00,VALID,920.507,VALID,0,VALID,100,VALID,-0.0849042,VALID,18.841,VALID,339,VALID,0,
2008-07-04, 00:07:00,VALID,920.493,VALID,0,VALID,100,VALID,-0.0849042,VALID,18.8345,VALID,7,VALID,0,
2008-07-04, 00:08:00,VALID,920.495,VALID,0,VALID,100,VALID,-0.0849042,VALID,18.8607,VALID,6,VALID,0,
2008-07-04, 00:09:00,VALID,920.488,VALID,0,VALID,100,VALID,-0.101885,VALID,18.8767,VALID,13,VALID,0.201265,
2008-07-04, 00:10:00,VALID,920.482,VALID,0,VALID,100,VALID,-0.101885,VALID,18.8964,VALID,29,VALID,0.122396,
2008-07-04, 00:11:00,VALID,920.469,VALID,0,VALID,100,VALID,-0.101885,VALID,18.8994,VALID,29,VALID,0.149219,
2008-07-04, 00:12:00,VALID,920.47,VALID,0,VALID,100,VALID,-0.0849042,VALID,18.8899,VALID,29,VALID,0.759055,
2008-07-04, 00:13:00,VALID,920.44,VALID,0,VALID,100,VALID,-0.101885,VALID,18.9031,VALID,34,VALID,0.61319,
2008-07-04, 00:14:00,VALID,920.414,VALID,0,VALID,100,VALID,-0.101885,VALID,18.9254,VALID,42,VALID,0.900152,
2008-07-04, 00:15:00,VALID,920.409,VALID,0,VALID,100,VALID,-0.0849042,VALID,18.9189,VALID,19,VALID,1.06938,
2008-07-04, 00:16:00,VALID,920.383,VALID,0,VALID,100,VALID,-0.0849042,VALID,18.8869,VALID,13,VALID,1.32976,
2008-07-04, 00:17:00,VALID,920.357,VALID,0,VALID,100,VALID,-0.101885,VALID,18.8573,VALID,12,VALID,1.39382,
2008-07-04, 00:18:00,VALID,920.333,VALID,0,VALID,100,VALID,-0.101885,VALID,18.8415,VALID,27,VALID,1.4345,
2008-07-04, 00:19:00,VALID,920.291,VALID,0,VALID,100,VALID,-0.101885,VALID,18.8188,VALID,26,VALID,1.93848,
2008-07-04, 00:20:00,VALID,920.262,VALID,0,VALID,100,VALID,-0.118866,VALID,18.8123,VALID,26,VALID,1.91619,
2008-07-04, 00:21:00,VALID,920.247,VALID,0,VALID,100,VALID,-0.101885,VALID,18.7891,VALID,18,VALID,1.80344,
2008-07-04, 00:22:00,VALID,920.239,VALID,0,VALID,100,VALID,-0.0849042,VALID,18.7989,VALID,26,VALID,1.12462,
2008-07-04, 00:23:00,VALID,920.209,VALID,0,VALID,100,VALID,-0.101885,VALID,18.8056,VALID,26,VALID,0.955729,
2008-07-04, 00:24:00,VALID,920.184,VALID,0,VALID,100,VALID,-0.101885,VALID,18.8021,VALID,41,VALID,0.934152,
2008-07-04, 00:25:00,VALID,920.159,VALID,0,VALID,100,VALID,-0.0849042,VALID,18.7991,VALID,39,VALID,0.723722,
2008-07-04, 00:26:00,VALID,920.134,VALID,0,VALID,100,VALID,-0.0679233,VALID,18.8051,VALID,26,VALID,0.382267,
2008-07-04, 00:27:00,VALID,920.106,VALID,0,VALID,100,VALID,-0.0679233,VALID,18.7909,VALID,32,VALID,0.904018,
2008-07-04, 00:28:00,VALID,920.072,VALID,0,VALID,100,VALID,0,VALID,18.7747,VALID,32,VALID,0.849019,
2008-07-04, 00:29:00,VALID,920.049,VALID,0,VALID,100,VALID,0,VALID,18.7682,VALID,19,VALID,1.12309,
2008-07-04, 00:30:00,VALID,920.025,VALID,0,VALID,100,VALID,-0.0169808,VALID,18.7717,VALID,10,VALID,1.05878,
2008-07-04, 00:31:00,VALID,920.029,VALID,0,VALID,100,VALID,0.0169808,VALID,18.7717,VALID,21,VALID,1.00035,
2008-07-04, 00:32:00,VALID,920.002,VALID,0,VALID,100,VALID,0.0169808,VALID,18.775,VALID,23,VALID,1.20022,
2008-07-04, 00:33:00,VALID,919.998,VALID,0,VALID,100,VALID,0,VALID,18.7685,VALID,22,VALID,1.10476,
2008-07-04, 00:34:00,VALID,919.978,VALID,0,VALID,100,VALID,0,VALID,18.7687,VALID,13,VALID,1.0245,
2008-07-04, 00:35:00,VALID,919.986,VALID,0,VALID,100,VALID,0,VALID,18.7682,VALID,23,VALID,1.08173,
2008-07-04, 00:36:00,VALID,919.983,VALID,0,VALID,100,VALID,0,VALID,18.7842,VALID,33,VALID,0.313408,
2008-07-04, 00:37:00,VALID,919.962,VALID,0,VALID,100,VALID,0,VALID,18.7905,VALID,29,VALID,0.888542,
2008-07-04, 00:38:00,VALID,919.944,VALID,0,VALID,100,VALID,-0.0169808,VALID,18.7909,VALID,35,VALID,1.1713,
2008-07-04, 00:39:00,VALID,919.929,VALID,0,VALID,100,VALID,0,VALID,18.7977,VALID,22,VALID,1.31441,
2008-07-04, 00:40:00,VALID,919.896,VALID,0,VALID,100,VALID,-0.0169808,VALID,18.8074,VALID,24,VALID,1.38645,
2008-07-04, 00:41:00,VALID,919.866,VALID,0,VALID,100,VALID,0.0169808,VALID,18.8137,VALID,23,VALID,1.101,
2008-07-04, 00:42:00,VALID,919.827,VALID,0,VALID,100,VALID,0.0169808,VALID,18.8169,VALID,17,VALID,1.03143,
2008-07-04, 00:43:00,VALID,919.797,VALID,0,VALID,100,VALID,0.0169808,VALID,18.8264,VALID,24,VALID,0.913715,
2008-07-04, 00:44:00,VALID,919.754,VALID,0,VALID,100,VALID,0.0169808,VALID,18.8396,VALID,22,VALID,0.644345,
2008-07-04, 00:45:00,VALID,919.737,VALID,0,VALID,100,VALID,0.0169808,VALID,18.8201,VALID,18,VALID,1.15694,
2008-07-04, 00:46:00,VALID,919.702,VALID,0,VALID,100,VALID,-0.0169808,VALID,18.8137,VALID,21,VALID,1.10918,
2008-07-04, 00:47:00,VALID,919.657,VALID,0,VALID,100,VALID,0,VALID,18.8042,VALID,13,VALID,1.03553,
2008-07-04, 00:48:00,VALID,919.622,VALID,0,VALID,100,VALID,0.0169808,VALID,18.8169,VALID,24,VALID,0.910937,
2008-07-04, 00:49:00,VALID,919.563,VALID,0,VALID,100,VALID,0,VALID,18.8139,VALID,24,VALID,1.01989,
2008-07-04, 00:50:00,VALID,919.512,VALID,0,VALID,100,VALID,0.0339617,VALID,18.8134,VALID,35,VALID,0.882227,
2008-07-04, 00:51:00,VALID,919.477,VALID,0,VALID,100,VALID,0.0339617,VALID,18.8201,VALID,34,VALID,0.898628,
2008-07-04, 00:52:00,VALID,919.424,VALID,0,VALID,100,VALID,0,VALID,18.8266,VALID,41,VALID,0.873471,
2008-07-04, 00:53:00,VALID,919.404,VALID,0,VALID,100,VALID,-0.0169808,VALID,18.8336,VALID,40,VALID,0.33939,
2008-07-04, 00:54:00,VALID,919.379,VALID,0,VALID,100,VALID,-0.0849042,VALID,18.8313,VALID,40,VALID,0,
2008-07-04, 00:55:00,VALID,919.371,VALID,0,VALID,100,VALID,-0.101885,VALID,18.8213,VALID,40,VALID,0,
2008-07-04, 00:56:00,VALID,919.372,VALID,0,VALID,100,VALID,-0.101885,VALID,18.8281,VALID,40,VALID,0,
2008-07-04, 00:57:00,VALID,919.37,VALID,0,VALID,100,VALID,-0.0679233,VALID,18.8283,VALID,40,VALID,0,
2008-07-04, 00:58:00,VALID,919.351,VALID,0,VALID,100,VALID,-0.0849042,VALID,18.8086,VALID,40,VALID,0,
2008-07-04, 00:59:00,VALID,919.338,VALID,0,VALID,100,VALID,-0.0849042,VALID,18.7989,VALID,40,VALID,0,
2008-07-04, 01:00:00,VALID,919.337,VALID,0,VALID,100,VALID,-0.101885,VALID,18.7891,VALID,40,VALID,0,
2008-07-04, 01:01:00,VALID,919.324,VALID,0,VALID,100,VALID,-0.101885,VALID,18.7889,VALID,40,VALID,0,
2008-07-04, 01:02:00,VALID,919.321,VALID,0,VALID,100,VALID,-0.101885,VALID,18.7792,VALID,40,VALID,0,
2008-07-04, 01:03:00,VALID,919.297,VALID,0,VALID,100,VALID,-0.0339617,VALID,18.7859,VALID,40,VALID,0,
2008-07-04, 01:04:00,VALID,919.266,VALID,0,VALID,100,VALID,-0.0679233,VALID,18.7727,VALID,40,VALID,0,
2008-07-04, 01:05:00,VALID,919.25,VALID,0,VALID,100,VALID,-0.0679233,VALID,18.7759,VALID,40,VALID,0,
2008-07-04, 01:06:00,VALID,919.225,VALID,0,VALID,100,VALID,-0.0679233,VALID,18.7599,VALID,40,VALID,0,
2008-07-04, 01:07:00,VALID,919.211,VALID,0,VALID,100,VALID,-0.0849042,VALID,18.75,VALID,40,VALID,0,
2008-07-04, 01:08:00,VALID,919.208,VALID,0,VALID,100,VALID,-0.0679233,VALID,18.7504,VALID,21,VALID,0,
2008-07-04, 01:09:00,VALID,919.2,VALID,0,VALID,100,VALID,-0.0849042,VALID,18.747,VALID,19,VALID,0,
2008-07-04, 01:10:00,VALID,919.208,VALID,0,VALID,100,VALID,-0.0849042,VALID,18.7337,VALID,19,VALID,0,
2008-07-04, 01:11:00,VALID,919.207,VALID,0,VALID,100,VALID,-0.0849042,VALID,18.7337,VALID,19,VALID,0,
2008-07-04, 01:12:00,VALID,919.211,VALID,0,VALID,100,VALID,-0.101885,VALID,18.7275,VALID,19,VALID,0,
2008-07-04, 01:13:00,VALID,919.227,VALID,0,VALID,100,VALID,-0.101885,VALID,18.7175,VALID,19,VALID,0,
2008-07-04, 01:14:00,VALID,919.237,VALID,0,VALID,100,VALID,-0.101885,VALID,18.7275,VALID,23,VALID,0,
2008-07-04, 01:15:00,VALID,919.243,VALID,0,VALID,100,VALID,-0.118866,VALID,18.7178,VALID,88,VALID,0,
2008-07-04, 01:16:00,VALID,919.247,VALID,0,VALID,100,VALID,-0.0849042,VALID,18.6918,VALID,116,VALID,0,
2008-07-04, 01:17:00,VALID,919.246,VALID,0,VALID,100,VALID,-0.0679233,VALID,18.6723,VALID,189,VALID,0.196094,
2008-07-04, 01:18:00,VALID,919.247,VALID,0,VALID,100,VALID,-0.0679233,VALID,18.6496,VALID,193,VALID,0.677782,
2008-07-04, 01:19:00,VALID,919.237,VALID,0,VALID,100,VALID,-0.101885,VALID,18.6496,VALID,190,VALID,0.713796,
2008-07-04, 01:20:00,VALID,919.22,VALID,0,VALID,100,VALID,-0.0849042,VALID,18.6462,VALID,189,VALID,0.287574,
2008-07-04, 01:21:00,VALID,919.193,VALID,0,VALID,100,VALID,-0.0849042,VALID,18.6299,VALID,189,VALID,0.319633,
2008-07-04, 01:22:00,VALID,919.163,VALID,0,VALID,100,VALID,-0.0509425,VALID,18.6332,VALID,189,VALID,0,
2008-07-04, 01:23:00,VALID,919.136,VALID,0,VALID,100,VALID,-0.0339617,VALID,18.6295,VALID,188,VALID,0,
2008-07-04, 01:24:00,VALID,919.113,VALID,0,VALID,100,VALID,-0.0679233,VALID,18.6322,VALID,170,VALID,0,
2008-07-04, 01:25:00,VALID,919.091,VALID,0,VALID,100,VALID,-0.0679233,VALID,18.6128,VALID,143,VALID,0.196221,
2008-07-04, 01:26:00,VALID,919.062,VALID,0,VALID,100,VALID,-0.0849042,VALID,18.6133,VALID,145,VALID,0.333757,
2008-07-04, 01:27:00,VALID,919.052,VALID,0,VALID,100,VALID,-0.0339617,VALID,18.614,VALID,144,VALID,0.763626,
2008-07-04, 01:28:00,VALID,919.026,VALID,0,VALID,100,VALID,-0.0509425,VALID,18.5968,VALID,144,VALID,0.912946,
2008-07-04, 01:29:00,VALID,919,VALID,0,VALID,100,VALID,-0.0849042,VALID,18.6038,VALID,153,VALID,0.0142045,
2008-07-04, 01:30:00,VALID,918.974,VALID,0,VALID,100,VALID,-0.0339617,VALID,18.607,VALID,159,VALID,0,
2008-07-04, 01:31:00,VALID,918.961,VALID,0,VALID,100,VALID,-0.101885,VALID,18.6075,VALID,159,VALID,0,
2008-07-04, 01:32:00,VALID,918.944,VALID,0,VALID,100,VALID,-0.0509425,VALID,18.5973,VALID,153,VALID,0,
2008-07-04, 01:33:00,VALID,918.924,VALID,0,VALID,100,VALID,-0.0509425,VALID,18.594,VALID,149,VALID,0,
2008-07-04, 01:34:00,VALID,918.911,VALID,0,VALID,100,VALID,-0.0679233,VALID,18.5973,VALID,151,VALID,0,
2008-07-04, 01:35:00,VALID,918.904,VALID,0,VALID,100,VALID,-0.0679233,VALID,18.6008,VALID,160,VALID,0.0949219,
2008-07-04, 01:36:00,VALID,918.889,VALID,0,VALID,100,VALID,-0.0509425,VALID,18.5873,VALID,148,VALID,0.0450994,
2008-07-04, 01:37:00,VALID,918.895,VALID,0,VALID,100,VALID,-0.0339617,VALID,18.5841,VALID,155,VALID,0.0626905,
2008-07-04, 01:38:00,VALID,918.904,VALID,0,VALID,100,VALID,-0.101885,VALID,18.5773,VALID,160,VALID,0.00952744,
2008-07-04, 01:39:00,VALID,918.914,VALID,0,VALID,100,VALID,-0.0849042,VALID,18.5843,VALID,157,VALID,0.0744048,
2008-07-04, 01:40:00,VALID,918.918,VALID,0,VALID,100,VALID,-0.0509425,VALID,18.5873,VALID,165,VALID,1.24181,
2008-07-04, 01:41:00,VALID,918.907,VALID,0,VALID,100,VALID,-0.0849042,VALID,18.5875,VALID,164,VALID,1.59684,
2008-07-04, 01:42:00,VALID,918.868,VALID,0,VALID,100,VALID,-0.0509425,VALID,18.5845,VALID,148,VALID,1.33097,
2008-07-04, 01:43:00,VALID,918.852,VALID,0,VALID,100,VALID,-0.0509425,VALID,18.5845,VALID,152,VALID,0.931021,
2008-07-04, 01:44:00,VALID,918.823,VALID,0,VALID,100,VALID,-0.0849042,VALID,18.5783,VALID,145,VALID,1.0684,
2008-07-04, 01:45:00,VALID,918.817,VALID,0,VALID,100,VALID,-0.101885,VALID,18.5718,VALID,142,VALID,1.0467,
2008-07-04, 01:46:00,VALID,918.802,VALID,0,VALID,100,VALID,-0.101885,VALID,18.5683,VALID,133,VALID,1.44438,
2008-07-04, 01:47:00,VALID,918.794,VALID,0,VALID,100,VALID,-0.0849042,VALID,18.5713,VALID,135,VALID,1.14729,
2008-07-04, 01:48:00,VALID,918.779,VALID,0,VALID,100,VALID,-0.0509425,VALID,18.5716,VALID,135,VALID,1.1448,
2008-07-04, 01:49:00,VALID,918.782,VALID,0,VALID,100,VALID,-0.0509425,VALID,18.5646,VALID,134,VALID,1.21982,
2008-07-04, 01:50:00,VALID,918.771,VALID,0,VALID,100,VALID,-0.0339617,VALID,18.5648,VALID,137,VALID,1.30264,
2008-07-04, 01:51:00,VALID,918.756,VALID,0,VALID,100,VALID,-0.0509425,VALID,18.5581,VALID,131,VALID,1.34542,
2008-07-04, 01:52:00,VALID,918.751,VALID,0,VALID,100,VALID,-0.0509425,VALID,18.5479,VALID,135,VALID,1.13885,
2008-07-04, 01:53:00,VALID,918.733,VALID,0,VALID,100,VALID,-0.0849042,VALID,18.5514,VALID,133,VALID,1.59411,
2008-07-04, 01:54:00,VALID,918.722,VALID,0,VALID,100,VALID,-0.0339617,VALID,18.5451,VALID,128,VALID,1.47461,
2008-07-04, 01:55:00,VALID,918.713,VALID,0,VALID,100,VALID,-0.0509425,VALID,18.5491,VALID,132,VALID,1.14487,
2008-07-04, 01:56:00,VALID,918.694,VALID,0,VALID,100,VALID,-0.0679233,VALID,18.5456,VALID,120,VALID,1.63368,
2008-07-04, 01:57:00,VALID,918.681,VALID,0,VALID,100,VALID,-0.0509425,VALID,18.5359,VALID,110,VALID,1.36217,
2008-07-04, 01:58:00,VALID,918.685,VALID,0,VALID,100,VALID,-0.101885,VALID,18.5192,VALID,118,VALID,1.59146,
2008-07-04, 01:59:00,VALID,918.662,VALID,0,VALID,100,VALID,-0.101885,VALID,18.5292,VALID,114,VALID,1.5609,
2008-07-04, 02:00:00,VALID,918.651,VALID,0,VALID,100,VALID,-0.101885,VALID,18.5257,VALID,130,VALID,1.70476,
2008-07-04, 02:01:00,VALID,918.624,VALID,0,VALID,100,VALID,-0.0509425,VALID,18.5326,VALID,148,VALID,1.63039,
2008-07-04, 02:02:00,VALID,918.627,VALID,0,VALID,100,VALID,-0.0509425,VALID,18.5224,VALID,141,VALID,1.10919,
2008-07-04, 02:03:00,VALID,918.609,VALID,0,VALID,100,VALID,-0.0849042,VALID,18.5164,VALID,147,VALID,1.1766,
2008-07-04, 02:04:00,VALID,918.601,VALID,0,VALID,100,VALID,-0.0849042,VALID,18.5261,VALID,150,VALID,1.05646,
2008-07-04, 02:05:00,VALID,918.615,VALID,0,VALID,100,VALID,-0.0849042,VALID,18.5097,VALID,152,VALID,1.07813,
2008-07-04, 02:06:00,VALID,918.613,VALID,0,VALID,100,VALID,-0.0339617,VALID,18.5099,VALID,153,VALID,0.956759,
2008-07-04, 02:07:00,VALID,918.611,VALID,0,VALID,100,VALID,-0.101885,VALID,18.5266,VALID,154,VALID,0.920139,
2008-07-04, 02:08:00,VALID,918.609,VALID,0,VALID,100,VALID,-0.0679233,VALID,18.5192,VALID,147,VALID,0.788086,
2008-07-04, 02:09:00,VALID,918.601,VALID,0,VALID,100,VALID,0,VALID,18.522,VALID,148,VALID,0.889063,
2008-07-04, 02:10:00,VALID,918.579,VALID,0,VALID,100,VALID,0,VALID,18.5213,VALID,153,VALID,0.789757,
2008-07-04, 02:11:00,VALID,918.562,VALID,0,VALID,100,VALID,0.0339617,VALID,18.5347,VALID,156,VALID,0.00628811,
2008-07-04, 02:12:00,VALID,918.546,VALID,0,VALID,100,VALID,0,VALID,18.541,VALID,165,VALID,0.132457,
2008-07-04, 02:13:00,VALID,918.542,VALID,0,VALID,100,VALID,0,VALID,18.5342,VALID,163,VALID,0.83689,
2008-07-04, 02:14:00,VALID,918.531,VALID,0,VALID,100,VALID,0,VALID,18.5412,VALID,152,VALID,0.771621,
2008-07-04, 02:15:00,VALID,918.513,VALID,0,VALID,100,VALID,0.0509425,VALID,18.5412,VALID,153,VALID,0.346058,
2008-07-04, 02:16:00,VALID,918.5,VALID,0,VALID,100,VALID,0.0339617,VALID,18.5342,VALID,142,VALID,0.817587,
2008-07-04, 02:17:00,VALID,918.484,VALID,0,VALID,100,VALID,0.0169808,VALID,18.5278,VALID,142,VALID,1.03835,
2008-07-04, 02:18:00,VALID,918.472,VALID,0,VALID,100,VALID,0.0169808,VALID,18.5245,VALID,135,VALID,0.960069,
2008-07-04, 02:19:00,VALID,918.469,VALID,0,VALID,100,VALID,0.0339617,VALID,18.518,VALID,148,VALID,0.935082,
2008-07-04, 02:20:00,VALID,918.442,VALID,0,VALID,100,VALID,0.0169808,VALID,18.5046,VALID,155,VALID,1.31136,
2008-07-04, 02:21:00,VALID,918.405,VALID,0,VALID,100,VALID,0.0169808,VALID,18.5152,VALID,153,VALID,1.30142,
2008-07-04, 02:22:00,VALID,918.363,VALID,0,VALID,100,VALID,0.0169808,VALID,18.515,VALID,147,VALID,1.22768,
2008-07-04, 02:23:00,VALID,918.326,VALID,0,VALID,100,VALID,-0.0339617,VALID,18.5057,VALID,139,VALID,1.15865,
2008-07-04, 02:24:00,VALID,918.28,VALID,0,VALID,100,VALID,-0.0339617,VALID,18.4798,VALID,129,VALID,1.43388,
2008-07-04, 02:25:00,VALID,918.265,VALID,0,VALID,100,VALID,-0.0849042,VALID,18.4868,VALID,128,VALID,1.0564,
2008-07-04, 02:26:00,VALID,918.227,VALID,0,VALID,100,VALID,-0.0679233,VALID,18.4868,VALID,135,VALID,1.30487,
2008-07-04, 02:27:00,VALID,918.223,VALID,0,VALID,100,VALID,-0.0509425,VALID,18.4902,VALID,129,VALID,1.57161,
2008-07-04, 02:28:00,VALID,918.21,VALID,0,VALID,100,VALID,-0.0339617,VALID,18.4863,VALID,128,VALID,1.24128,
2008-07-04, 02:29:00,VALID,918.2,VALID,0,VALID,100,VALID,-0.0339617,VALID,18.5062,VALID,132,VALID,1.31343,
2008-07-04, 02:30:00,VALID,918.187,VALID,0,VALID,100,VALID,-0.0339617,VALID,18.5155,VALID,141,VALID,1.34208,
2008-07-04, 02:31:00,VALID,918.177,VALID,0,VALID,100,VALID,-0.0509425,VALID,18.5317,VALID,155,VALID,1.35658,
2008-07-04, 02:32:00,VALID,918.152,VALID,0,VALID,100,VALID,-0.0509425,VALID,18.5614,VALID,142,VALID,1.22147,
2008-07-04, 02:33:00,VALID,918.15,VALID,0,VALID,100,VALID,-0.0339617,VALID,18.5579,VALID,147,VALID,1.41667,
2008-07-04, 02:34:00,VALID,918.144,VALID,0,VALID,100,VALID,-0.0509425,VALID,18.5743,VALID,150,VALID,1.60804,
2008-07-04, 02:35:00,VALID,918.14,VALID,0,VALID,100,VALID,-0.0169808,VALID,18.5938,VALID,152,VALID,1.10026,
2008-07-04, 02:36:00,VALID,918.138,VALID,0,VALID,100,VALID,-0.0169808,VALID,18.6035,VALID,148,VALID,0.699405,
2008-07-04, 02:37:00,VALID,918.141,VALID,0,VALID,100,VALID,0,VALID,18.5963,VALID,145,VALID,1.32813,
2008-07-04, 02:38:00,VALID,918.138,VALID,0,VALID,100,VALID,-0.0339617,VALID,18.5968,VALID,138,VALID,1.682,
2008-07-04, 02:39:00,VALID,918.145,VALID,0,VALID,100,VALID,-0.118866,VALID,18.6082,VALID,144,VALID,1.76209,
2008-07-04, 02:40:00,VALID,918.128,VALID,0,VALID,100,VALID,-0.101885,VALID,18.6212,VALID,142,VALID,1.54609,
2008-07-04, 02:41:00,VALID,918.114,VALID,0,VALID,100,VALID,-0.152827,VALID,18.6107,VALID,146,VALID,1.63445,
2008-07-04, 02:42:00,VALID,918.091,VALID,0,VALID,100,VALID,-0.135847,VALID,18.6144,VALID,149,VALID,1.3391,
2008-07-04, 02:43:00,VALID,918.064,VALID,0,VALID,100,VALID,-0.152827,VALID,18.6047,VALID,146,VALID,1.09546,
2008-07-04, 02:44:00,VALID,918.041,VALID,0,VALID,100,VALID,-0.169808,VALID,18.6015,VALID,146,VALID,1.23117,
2008-07-04, 02:45:00,VALID,918.008,VALID,0,VALID,100,VALID,-0.135847,VALID,18.595,VALID,154,VALID,1.44774,
2008-07-04, 02:46:00,VALID,917.989,VALID,0,VALID,100,VALID,-0.169808,VALID,18.6049,VALID,160,VALID,1.16588,
2008-07-04, 02:47:00,VALID,917.969,VALID,0,VALID,100,VALID,-0.135847,VALID,18.6077,VALID,148,VALID,1.57832,
2008-07-04, 02:48:00,VALID,917.958,VALID,0,VALID,100,VALID,-0.135847,VALID,18.6374,VALID,163,VALID,1.32653,
2008-07-04, 02:49:00,VALID,917.959,VALID,0,VALID,100,VALID,-0.152827,VALID,18.6534,VALID,153,VALID,1.40739,
2008-07-04, 02:50:00,VALID,917.951,VALID,0,VALID,100,VALID,-0.220751,VALID,18.6733,VALID,146,VALID,1.67528,
2008-07-04, 02:51:00,VALID,917.962,VALID,0,VALID,100,VALID,-0.186789,VALID,18.6995,VALID,146,VALID,1.28072,
2008-07-04, 02:52:00,VALID,917.974,VALID,0,VALID,100,VALID,-0.152827,VALID,18.702,VALID,144,VALID,1.52586,
2008-07-04, 02:53:00,VALID,917.956,VALID,0,VALID,100,VALID,-0.101885,VALID,18.711,VALID,140,VALID,1.25688,
2008-07-04, 02:54:00,VALID,917.979,VALID,0,VALID,100,VALID,-0.0339617,VALID,18.7231,VALID,141,VALID,1.0692,
2008-07-04, 02:55:00,VALID,917.968,VALID,0,VALID,100,VALID,-0.0339617,VALID,18.7298,VALID,152,VALID,1.34819,
2008-07-04, 02:56:00,VALID,917.957,VALID,0,VALID,100,VALID,-0.0339617,VALID,18.7363,VALID,150,VALID,1.00744,
2008-07-04, 02:57:00,VALID,917.954,VALID,0,VALID,100,VALID,-0.0169808,VALID,18.733,VALID,153,VALID,1.39546,
2008-07-04, 02:58:00,VALID,917.938,VALID,0,VALID,100,VALID,-0.0679233,VALID,18.7263,VALID,153,VALID,1.17696,
2008-07-04, 02:59:00,VALID,917.937,VALID,0,VALID,100,VALID,-0.0339617,VALID,18.7335,VALID,147,VALID,1.05614,
2008-07-04, 03:00:00,VALID,917.935,VALID,0,VALID,100,VALID,-0.0509425,VALID,18.7263,VALID,137,VALID,0.868676,
2008-07-04, 03:01:00,VALID,917.938,VALID,0,VALID,100,VALID,-0.0679233,VALID,18.7228,VALID,141,VALID,0.780342,
2008-07-04, 03:02:00,VALID,917.946,VALID,0,VALID,100,VALID,-0.0509425,VALID,18.7201,VALID,135,VALID,0.506392,
2008-07-04, 03:03:00,VALID,917.948,VALID,0,VALID,100,VALID,-0.0509425,VALID,18.7171,VALID,141,VALID,0.730469,
2008-07-04, 03:04:00,VALID,917.948,VALID,0,VALID,100,VALID,-0.0339617,VALID,18.7101,VALID,114,VALID,0.75191,
2008-07-04, 03:05:00,VALID,917.936,VALID,0,VALID,100,VALID,-0.0339617,VALID,18.7041,VALID,107,VALID,0.117551,
2008-07-04, 03:06:00,VALID,917.933,VALID,0,VALID,100,VALID,-0.0169808,VALID,18.6839,VALID,101,VALID,0.213914,
2008-07-04, 03:07:00,VALID,917.92,VALID,0,VALID,100,VALID,-0.0169808,VALID,18.6649,VALID,92,VALID,0.757086,
2008-07-04, 03:08:00,VALID,917.914,VALID,0,VALID,100,VALID,-0.0509425,VALID,18.6485,VALID,94,VALID,0.83939,
2008-07-04, 03:09:00,VALID,917.904,VALID,0,VALID,100,VALID,-0.0339617,VALID,18.6424,VALID,90,VALID,0.998326,
2008-07-04, 03:10:00,VALID,917.877,VALID,0,VALID,100,VALID,-0.0679233,VALID,18.6362,VALID,93,VALID,0.842842,
2008-07-04, 03:11:00,VALID,917.878,VALID,0,VALID,100,VALID,-0.0679233,VALID,18.61,VALID,93,VALID,0.710582,
2008-07-04, 03:12:00,VALID,917.865,VALID,0,VALID,100,VALID,-0.0339617,VALID,18.6038,VALID,93,VALID,0.672215,
2008-07-04, 03:13:00,VALID,917.839,VALID,0,VALID,100,VALID,-0.0339617,VALID,18.5903,VALID,116,VALID,0.4482,
2008-07-04, 03:14:00,VALID,917.811,VALID,0,VALID,100,VALID,-0.0339617,VALID,18.5841,VALID,117,VALID,0.785156,
2008-07-04, 03:15:00,VALID,917.794,VALID,0,VALID,100,VALID,-0.0679233,VALID,18.5843,VALID,142,VALID,1.22977,
2008-07-04, 03:16:00,VALID,917.773,VALID,0,VALID,100,VALID,-0.0849042,VALID,18.5913,VALID,153,VALID,1.36566,
2008-07-04, 03:17:00,VALID,917.761,VALID,0,VALID,100,VALID,-0.0849042,VALID,18.6008,VALID,156,VALID,1.5383,
2008-07-04, 03:18:00,VALID,917.746,VALID,0,VALID,100,VALID,-0.0339617,VALID,18.617,VALID,159,VALID,1.58538,
2008-07-04, 03:19:00,VALID,917.758,VALID,0,VALID,100,VALID,-0.0509425,VALID,18.6265,VALID,161,VALID,1.484,
2008-07-04, 03:20:00,VALID,917.759,VALID,0,VALID,100,VALID,-0.0339617,VALID,18.6193,VALID,144,VALID,1.52907,
2008-07-04, 03:21:00,VALID,917.751,VALID,0,VALID,100,VALID,-0.0339617,VALID,18.6325,VALID,137,VALID,1.23881,
2008-07-04, 03:22:00,VALID,917.747,VALID,0,VALID,100,VALID,-0.0509425,VALID,18.623,VALID,122,VALID,1.39753,
2008-07-04, 03:23:00,VALID,917.73,VALID,0,VALID,100,VALID,-0.0339617,VALID,18.6197,VALID,132,VALID,1.60859,
2008-07-04, 03:24:00,VALID,917.725,VALID,0,VALID,100,VALID,0,VALID,18.6088,VALID,129,VALID,0.891897,
2008-07-04, 03:25:00,VALID,917.711,VALID,0,VALID,100,VALID,0.0169808,VALID,18.6188,VALID,129,VALID,0.721037,
2008-07-04, 03:26:00,VALID,917.701,VALID,0,VALID,100,VALID,0.0339617,VALID,18.6023,VALID,135,VALID,1.14391,
2008-07-04, 03:27:00,VALID,917.678,VALID,0,VALID,100,VALID,0.0169808,VALID,18.5989,VALID,143,VALID,0.984375,
2008-07-04, 03:28:00,VALID,917.673,VALID,0,VALID,100,VALID,0.0509425,VALID,18.6026,VALID,150,VALID,1.15039,
2008-07-04, 03:29:00,VALID,917.642,VALID,0,VALID,100,VALID,0.0339617,VALID,18.5921,VALID,151,VALID,0.892113,
2008-07-04, 03:30:00,VALID,917.628,VALID,0,VALID,100,VALID,0.0339617,VALID,18.5959,VALID,141,VALID,1.03497,
2008-07-04, 03:31:00,VALID,917.586,VALID,0,VALID,100,VALID,0.0339617,VALID,18.5894,VALID,143,VALID,1.09535,
2008-07-04, 03:32:00,VALID,917.559,VALID,0,VALID,100,VALID,0.0509425,VALID,18.5829,VALID,134,VALID,0.941051,
2008-07-04, 03:33:00,VALID,917.542,VALID,0,VALID,100,VALID,0.0339617,VALID,18.5829,VALID,128,VALID,0.446265,
2008-07-04, 03:34:00,VALID,917.512,VALID,0,VALID,100,VALID,0.0679233,VALID,18.5662,VALID,129,VALID,0.822545,
2008-07-04, 03:35:00,VALID,917.496,VALID,0,VALID,100,VALID,0.0339617,VALID,18.5565,VALID,136,VALID,0.53343,
2008-07-04, 03:36:00,VALID,917.476,VALID,0,VALID,100,VALID,0,VALID,18.5639,VALID,126,VALID,0.997142,
2008-07-04, 03:37:00,VALID,917.464,VALID,0,VALID,100,VALID,0,VALID,18.5572,VALID,125,VALID,0.731399,
2008-07-04, 03:38:00,VALID,917.48,VALID,0,VALID,100,VALID,0.0339617,VALID,18.5572,VALID,120,VALID,0.784455,
2008-07-04, 03:39:00,VALID,917.494,VALID,0,VALID,100,VALID,-0.0339617,VALID,18.5618,VALID,126,VALID,0.736471,
2008-07-04, 03:40:00,VALID,917.503,VALID,0,VALID,100,VALID,-0.101885,VALID,18.5521,VALID,141,VALID,0.216974,